Weather in Khyrdalan

Azerbaijan     40°27′06″N   49°44′30″E
temp.,
°C
wind,
m/s
gust,
m/s
humid.,
%
clouds,
%
prec.,
mm/h
press.,
hPa
HPBL,
m
21 january, fri
fri2101:00+2nnw121672100 0.3 10201119
04:00+2nnw10146691 0.4 1021954
07:00+2nnw912675 0.0 1023659
10:00+3nw56598 0.0 1026798
13:00+4ssw34430 0.0 1025968
16:00+5sw59455 0.0 10241162
19:00+4sw813470 0.0 1024616
22:00+3sw1015510 0.0 1023534
22 january, sat
sat2201:00+2ssw813481 0.0 1021368
04:00+2ssw815475 0.0 1020371
07:00+2ssw814470 0.0 1018339
10:00+3ssw915430 0.0 1018463
13:00+6ssw1216360 0.0 1017718
16:00+6ssw1217375 0.0 1015775
19:00+4ssw1016418 0.0 1016581
22:00+4ssw8154765 0.0 1015489
23 january, sun
sun2301:00+4ssw714606 0.0 1015428
04:00+4ssw612585 0.0 1015294
07:00+4s485710 0.0 1015167
10:00+6s5105748 0.0 1015374
13:00+9s9115712 0.0 1014913
16:00+9s811553 0.0 1013833
19:00+7s612510 0.0 1014478
22:00+6s712470 0.0 1014382
24 january, mon
mon2401:00+5s611450 0.0 1014272
04:00+4s48480 0.0 1014175
07:00+4s35510 0.0 101591
10:00+6s36500 0.0 1016209
13:00+9s57450 0.0 1015487
16:00+9s68661 0.0 1015575
19:00+7s477528 0.0 1016293
22:00+7s36800 0.0 1016165
25 january, tue
tue2501:00+6s48690 0.0 1017177
04:00+5ssw58490 0.0 1017182
07:00+4wsw22530 0.0 101829
10:00+6wsw12500 0.0 101979
13:00+8ne01500 0.0 1019478
16:00+10s13400 0.0 1019674
19:00+7n45690 0.0 1021194
22:00+6nnw68791 0.0 1023424